[[{"header":{"parameterUnit":"m.s-1","parameterCategory":1,"la1":30.2991,"la2":30.254,"lo1":-89.0895,"lo2":-89.0444,"dy":0.0017,"dx":0.0017,"nx":28,"ny":28,"refTime":"2024-06-15T09:00:00:Z","depth":0,"parameterNumber":2,"parameterNumberName":"U-component_of_WINDS"},"data":[0,0,0,0,0,0,0,0,0,0,0,0,0,0,0,0,0,0,0,0,0,0,0,0,0,0,0,0,0,0,0,0,0,0,0,0,0,0,0,0,0,0,0,0,0,0,0,0,0,0,0,0,0,0,0,0,0,0,-3.9944,-3.9945,0,-4.0044,-4.0045,-4.0046,-3.9995,-3.9993,-3.999,-3.9988,-4.0089,-4.0094,-4.0099,0,0,0,0,0,0,0,0,0,0,0,0,0,-3.971,-3.9715,-3.9944,-3.9945,-3.9947,-4.0043,-4.0045,-4.0046,-3.9996,-3.9993,-3.9989,-3.9986,-4.0087,-4.0093,-4.0099,0,0,0,0,0,0,0,0,0,0,0,0,0,-3.9811,-3.9716,-3.9944,-3.9933,-3.9933,-4.0043,-4.0045,-4.0047,-3.9996,-3.9992,-3.9989,-3.9985,-4.0085,-4.0092,-4.01,-4.0226,0,0,-4.0124,-4.0127,0,0,0,0,0,0,0,0,-3.9805,-3.9819,-3.9933,-3.9934,-3.9934,-4.0003,-3.9999,-4.0107,-3.9997,-3.9972,-3.9987,-3.9983,-4.0063,-4.0073,-4.01,-4.0231,-4.0235,-4.0124,-4.0129,-4.0132,-4.0134,0,0,0,0,0,0,0,-3.9798,-3.9815,-3.9983,-3.9935,-3.9936,-3.9923,-3.9933,-4.0019,-4.0039,-3.9974,-3.9971,-3.9983,-4.0063,-4.0093,-4.0102,-4.0237,-4.0124,-4.0131,-4.0136,-4.0139,-4.0476,-4.0481,0,0,0,0,0,0,-3.9792,-3.9809,-3.998,-3.9986,-3.9859,-3.9931,-3.9942,-3.9985,-4.0038,-4.0042,-3.9987,-3.9981,-4.0081,-4.0093,-4.0105,-4.0256,-4.0132,-4.0139,-4.0144,-4.0472,-4.0477,-4.0482,0,0,0,0,0,0,-3.9787,-3.9808,-3.9976,-3.9897,-3.9918,-3.9939,-3.9988,-3.9989,-4.0019,-4.0047,-4.005,-4.0013,-4.0079,-4.0094,-4.0197,-4.0259,-4.0143,-4.015,-4.0467,-4.0474,-4.048,-4.0558,0,0,0,0,0,0,-3.978,-3.9806,-3.9854,-3.9899,-3.9922,-4.0066,-3.9992,-3.9994,-4.0032,-4.0025,-4.0073,-4.0077,-4.0077,-4.0185,-4.0204,-4.0267,-4.0156,-4.0461,-4.047,-4.0478,-4.055,-4.0567,-4.0581,0,0,0,0,0,-3.9772,-3.9872,-3.9857,-3.9878,-3.9983,-4.007,-4.0083,-4.0081,-4.0037,-4.0086,-4.0104,-4.0076,-4.0249,-4.0196,-4.0217,-4.0283,-4.0457,-4.0468,-4.0477,-4.0543,-4.0564,-4.0581,0,0,0,0,0,0,-3.9834,-3.9878,-3.9861,-3.9979,-4.0021,-4.0061,-4.0122,-4.0103,-4.0158,-4.0149,-4.0144,-4.0155,-4.0261,-4.0283,-4.0223,-4.0408,-4.0347,-4.0361,-4.039,-4.0409,-4.0424,-4.0416,-4.0162,0,0,0,0,0,-3.9862,-3.9929,-3.9964,-4.0064,-4.0086,-4.0101,-4.0139,-4.0134,-4.0177,-4.0194,-4.022,-4.0263,-4.0327,-4.037,-4.0431,-4.0554,-4.0563,-4.061,-4.0625,-4.0637,-4.0649,-4.0716,-4.0737,-4.0514,-4.0514,-4.0514,0,0,-3.9919,-3.9951,-3.9994,-4.0077,-4.0109,-4.0179,-4.0116,-4.0192,-4.0244,-4.0206,-4.0304,-4.0325,-4.0372,-4.0486,-4.0537,-4.0507,-4.0713,-4.065,-4.066,-4.0665,-4.0728,-4.0749,-4.0768,-4.0521,-4.052,-4.0519,0,0,-4.0058,-4.009,-4.0177,-4.021,-4.026,-4.0269,-4.029,-4.0334,-4.0346,-4.0445,-4.0418,-4.0479,-4.059,-4.0625,-4.0657,-4.0811,-4.0787,-4.0832,-4.0911,-4.0976,-4.0993,-4.1009,-4.1063,-4.1082,-4.0844,-4.0844,-4.0844,0,-4.0123,-4.0227,-4.0224,-4.0302,-4.0339,-4.0309,-4.0397,-4.043,-4.0497,-4.0523,-4.0489,-4.0627,-4.0658,-4.0778,-4.0816,-4.0844,-4.0867,-4.0825,-4.0991,-4.1006,-4.1021,-4.1072,-4.1093,-4.0849,-4.0848,-4.0848,-4.0847,0,-4.0303,-4.0376,-4.044,-4.0506,-4.055,-4.0633,-4.0642,-4.0688,-4.068,-4.0693,-4.0793,-4.0829,-4.0896,-4.0925,-4.0917,-4.1045,-4.1024,-4.0991,-4.0929,-4.1047,-4.1095,-4.1115,-4.0856,-4.0854,-4.0853,-4.0852,0,0,-4.0483,-4.0547,-4.057,-4.0599,-4.0652,-4.0708,-4.079,-4.0856,-4.0895,-4.0943,-4.1011,-4.1106,-4.1075,-4.1112,-4.1109,-4.1166,-4.1285,-4.1125,-4.1126,-4.1152,-4.1427,-4.1451,-4.1474,-4.127,-4.1273,-4.1276,-4.1423,0,-4.0625,-4.0767,-4.0767,-4.0899,-4.0966,-4.0939,-4.101,-4.105,-4.1065,-4.1123,-4.114,-4.1207,-4.1162,-4.1184,-4.1239,-4.1258,-4.1339,-4.1248,-4.1332,-4.1335,-4.1319,-4.1499,-4.1524,-4.166,-4.1441,-4.1445,-4.1447,0,-4.0809,-4.0863,-4.1001,-4.1045,-4.1073,-4.1137,-4.1197,-4.1254,-4.1299,-4.1306,-4.1348,-4.1336,-4.1419,-4.1356,-4.147,-4.1407,-4.1442,-4.1457,-4.1462,-4.1469,-4.1397,-4.1509,-4.1704,-4.1724,-4.1477,-4.1475,-4.1472,0,-4.0925,-4.1032,-4.1129,-4.1155,-4.1208,-4.1254,-4.1278,-4.132,-4.1359,-4.1413,-4.1438,-4.1501,-4.1535,-4.1584,-4.1589,-4.1542,-4.1703,-4.1641,-4.1711,-4.1711,-4.1744,-4.1742,-4.1946,-4.1769,-4.1769,-4.1769,-4.1768,0,-4.1083,-4.1168,-4.1181,-4.1241,-4.1335,-4.1335,-4.1429,-4.1449,-4.1487,-4.1549,-4.153,-4.159,-4.1593,-4.1654,-4.1659,-4.1752,-4.1768,-4.1775,-4.1775,-4.1776,-4.1775,-4.1798,-4.1788,-4.1774,-4.1773,-4.1772,-4.1771,0,-4.1228,-4.124,-4.1343,-4.1386,-4.1398,-4.1466,-4.1502,-4.1559,-4.1572,-4.1652,-4.167,-4.1691,-4.1762,-4.1772,-4.1855,-4.1858,-4.197,-4.1961,-4.1955,-4.1953,-4.2022,-4.2015,-4.2247,-4.2277,-4.2082,-4.2084,-4.2085,0,-4.1327,-4.1392,-4.1441,-4.1482,-4.1509,-4.1575,-4.1615,-4.1618,-4.1661,-4.1718,-4.1767,-4.1836,-4.1891,-4.2006,-4.2028,-4.2092,-4.2083,-4.216,-4.2092,-4.2091,-4.2083,-4.2078,-4.2085,-4.2172,-4.2175,-4.2176,-4.2178,0,-4.1501,-4.1504,-4.1563,-4.1625,-4.1674,-4.1723,-4.1769,-4.1804,-4.1812,-4.1861,-4.1934,-4.1976,-4.2061,-4.213,-4.2193,-4.2218,-4.22,-4.2199,-4.2218,-4.2219,-4.2213,-4.2216,-4.1989,-4.2193,-4.2192,-4.2191,-4.219,-4.2189,-4.1625,-4.1682,-4.1725,-4.1792,-4.1827,-4.1871,-4.1925,-4.1946,-4.2006,-4.2075,-4.2073,-4.2153,-4.2197,-4.2279,-4.2309,-4.2371,-4.2346,-4.2374,-4.2381,-4.2388,-4.2394,-4.2204,-4.2383,-4.2382,-4.2382,-4.2382,-4.2381,0,-4.1798,-4.1825,-4.1886,-4.1951,-4.2004,-4.1982,-4.2032,-4.2077,-4.2147,-4.219,-4.2245,-4.2328,-4.2395,-4.2423,-4.2488,-4.2533,-4.2526,-4.255,-4.2546,-4.2552,-4.2413,-4.239,-4.2554,-4.2554,-4.2554,-4.2554,-4.2554,-4.2554,-4.1893,-4.1987,-4.1996,-4.2107,-4.2133,-4.2211,-4.2241,-4.2281,-4.2315,-4.2409,-4.2464,-4.2482,-4.2519,-4.2587,-4.2648,-4.2654,-4.2679,-4.2706,-4.2709,-4.2579,-4.2561,-4.2545,-4.2522,-4.2712,-4.2712,-4.2842,-4.2843,-4.2844]},{"header":{"parameterUnit":"m.s-1","parameterCategory":1,"la1":30.2991,"la2":30.254,"lo1":-89.0895,"lo2":-89.0444,"dy":0.0017,"dx":0.0017,"nx":28,"ny":28,"refTime":"2024-06-15T09:00:00:Z","depth":0,"parameterNumber":3,"parameterNumberName":"V-component_of_WINDS"},"data":[0,0,0,0,0,0,0,0,0,0,0,0,0,0,0,0,0,0,0,0,0,0,0,0,0,0,0,0,0,0,0,0,0,0,0,0,0,0,0,0,0,0,0,0,0,0,0,0,0,0,0,0,0,0,0,0,0,0,1.3393,1.3393,0,1.3372,1.3372,1.3371,1.3334,1.3334,1.3333,1.3332,1.3309,1.3309,1.3309,0,0,0,0,0,0,0,0,0,0,0,0,0,1.34,1.34,1.3393,1.3393,1.3392,1.3372,1.3372,1.3371,1.3334,1.3334,1.3333,1.3332,1.3309,1.3309,1.3309,0,0,0,0,0,0,0,0,0,0,0,0,0,1.339,1.34,1.3393,1.3372,1.3369,1.3372,1.3372,1.3371,1.3335,1.3334,1.3333,1.3332,1.3309,1.3309,1.3309,1.333,0,0,1.3309,1.3309,0,0,0,0,0,0,0,0,1.3391,1.339,1.3375,1.3373,1.3371,1.3355,1.3366,1.3357,1.3335,1.3348,1.3332,1.3331,1.3325,1.3324,1.3322,1.3329,1.3328,1.3309,1.3309,1.3309,1.3309,0,0,0,0,0,0,0,1.3391,1.339,1.3384,1.3375,1.3372,1.3363,1.336,1.3364,1.3342,1.3347,1.3344,1.3342,1.3324,1.3322,1.3321,1.3328,1.3309,1.3309,1.3309,1.3309,1.3353,1.3354,0,0,0,0,0,0,1.3395,1.3391,1.3385,1.3384,1.3378,1.3364,1.3361,1.3361,1.3342,1.3339,1.3343,1.334,1.3322,1.3321,1.332,1.3344,1.3309,1.3309,1.3309,1.3352,1.3353,1.3354,0,0,0,0,0,0,1.3396,1.3395,1.3386,1.3387,1.3385,1.3364,1.3365,1.3361,1.3359,1.334,1.3335,1.3345,1.3322,1.332,1.3329,1.3343,1.3309,1.3309,1.335,1.3352,1.3354,1.3393,0,0,0,0,0,0,1.3396,1.3395,1.3403,1.3387,1.3385,1.3395,1.3366,1.3361,1.336,1.3356,1.3341,1.3337,1.3321,1.3329,1.3329,1.3342,1.3309,1.3349,1.3351,1.3353,1.339,1.3396,1.34,0,0,0,0,0,1.3396,1.3415,1.3404,1.3403,1.3395,1.3396,1.3394,1.3376,1.3361,1.3369,1.3356,1.3338,1.3342,1.333,1.3329,1.3344,1.3348,1.3351,1.3353,1.3388,1.3394,1.34,0,0,0,0,0,0,1.3432,1.3412,1.34,1.3413,1.3407,1.339,1.3399,1.3383,1.338,1.3377,1.3353,1.335,1.3362,1.3353,1.334,1.3364,1.3342,1.3345,1.3369,1.3375,1.338,1.3381,1.331,0,0,0,0,0,1.3441,1.3444,1.3427,1.344,1.3438,1.3419,1.3419,1.3405,1.3397,1.3394,1.3382,1.3374,1.3374,1.3374,1.3372,1.3389,1.3385,1.3399,1.3404,1.3408,1.341,1.3419,1.3425,1.3363,1.3363,1.3363,0,0,1.3461,1.345,1.3453,1.3447,1.344,1.3444,1.3417,1.3421,1.3424,1.3394,1.3401,1.3393,1.3383,1.3396,1.3401,1.3389,1.3427,1.3411,1.3415,1.3415,1.3423,1.3429,1.3434,1.3364,1.3364,1.3364,0,0,1.3498,1.349,1.3501,1.3495,1.3486,1.3473,1.3476,1.3462,1.3455,1.3463,1.3441,1.3443,1.3443,1.3437,1.3434,1.3471,1.3454,1.3471,1.3498,1.3507,1.3512,1.3516,1.3529,1.3535,1.3474,1.3474,1.3474,0,1.3523,1.3528,1.3508,1.3515,1.3513,1.3488,1.3499,1.3494,1.3484,1.3484,1.3471,1.3471,1.3463,1.3474,1.3484,1.3482,1.3484,1.3472,1.3513,1.3517,1.352,1.3533,1.3538,1.3476,1.3476,1.3476,1.3475,0,1.3559,1.3563,1.3573,1.3565,1.3565,1.3573,1.3556,1.3557,1.3544,1.3534,1.3542,1.3531,1.3527,1.3529,1.3516,1.354,1.3533,1.3517,1.3494,1.3529,1.354,1.3545,1.3479,1.3478,1.3478,1.3477,0,0,1.3616,1.36,1.3603,1.36,1.3589,1.3591,1.3599,1.3596,1.3599,1.3593,1.3599,1.3601,1.3586,1.3583,1.3569,1.3577,1.3608,1.356,1.356,1.357,1.3634,1.3646,1.3652,1.3597,1.3598,1.3599,1.3635,0,1.3651,1.3664,1.3648,1.3664,1.3668,1.3645,1.3652,1.3645,1.3636,1.3638,1.3627,1.3628,1.3609,1.3607,1.3614,1.3603,1.3621,1.36,1.3602,1.3603,1.3605,1.3657,1.367,1.3704,1.3639,1.364,1.364,0,1.3692,1.369,1.3707,1.3696,1.3697,1.3703,1.37,1.3702,1.3695,1.3688,1.3685,1.3669,1.3676,1.3655,1.3665,1.3652,1.3652,1.3647,1.3648,1.3646,1.3623,1.3658,1.3714,1.372,1.3647,1.3647,1.3646,0,1.3733,1.3734,1.3745,1.3743,1.3729,1.3735,1.373,1.3721,1.3721,1.3719,1.3718,1.3717,1.3715,1.3714,1.3698,1.3685,1.371,1.3688,1.3704,1.3705,1.371,1.371,1.3768,1.3711,1.3711,1.3711,1.3711,0,1.3773,1.3784,1.3763,1.3769,1.3782,1.3763,1.3776,1.3768,1.3762,1.3766,1.3746,1.3751,1.373,1.3732,1.372,1.373,1.373,1.3724,1.3721,1.3726,1.3727,1.3725,1.3722,1.3712,1.3712,1.3712,1.3711,0,1.3819,1.3806,1.3816,1.3803,1.38,1.381,1.3799,1.3805,1.3795,1.3801,1.3801,1.3785,1.3788,1.3772,1.3771,1.3763,1.3779,1.3771,1.3781,1.3779,1.3796,1.3795,1.3855,1.3862,1.3801,1.3802,1.3802,0,1.3845,1.3854,1.3843,1.3845,1.3841,1.3844,1.3844,1.3827,1.3828,1.3822,1.3828,1.3829,1.3829,1.3833,1.3821,1.3821,1.3813,1.3834,1.3813,1.3818,1.3813,1.3813,1.3814,1.3838,1.3839,1.384,1.384,0,1.3893,1.3887,1.3888,1.3887,1.3888,1.3887,1.3884,1.3887,1.3868,1.387,1.3873,1.3873,1.3873,1.3874,1.3871,1.3866,1.385,1.3847,1.3851,1.3856,1.3862,1.3859,1.3793,1.3846,1.3845,1.3845,1.3844,1.3844,1.3931,1.3937,1.3931,1.3933,1.393,1.3928,1.3933,1.3924,1.3926,1.3925,1.3915,1.3919,1.3913,1.3908,1.3904,1.3908,1.3897,1.3903,1.3904,1.3906,1.3909,1.3862,1.3907,1.3907,1.3907,1.3907,1.3907,0,1.3978,1.3973,1.3975,1.3972,1.3975,1.3961,1.3957,1.396,1.3964,1.396,1.3961,1.3964,1.3966,1.3955,1.3955,1.396,1.3953,1.396,1.3959,1.3959,1.3918,1.3915,1.3966,1.3966,1.3966,1.3966,1.3966,1.3966,1.4002,1.4013,1.4006,1.4015,1.401,1.4015,1.4014,1.4013,1.4009,1.4014,1.4016,1.4009,1.4002,1.4002,1.4003,1.3999,1.4,1.4011,1.4005,1.3967,1.3961,1.3956,1.3952,1.4011,1.4011,1.4045,1.4045,1.4046]}]]